User: anonymous   Login
Location: Sunrise Point
(46.9200°N, 121.5900°W)
Time: 10:11:13
(UTC-08:00)
Language:

Cosmos 2058 - Orbit

View from above orbital plane
View from above orbital plane
View from above satellite
View from above satellite

Ground track
Ground track

The orbit data is extracted from the following two-line orbital elements,

1 20465U 90010A   17019.60812966  .00000304  00000-0  23751-4 0  9992
2 20465  82.4883  30.7023 0017242  76.6817 283.6327 14.97406226463104
Epoch (UTC): 19 January 2017 14:35:42
Eccentricity: 0.0017242
inclination: 82.4883°
perigee height: 563 km
apogee height: 587 km
right ascension of ascending node: 30.7023°
argument of perigee: 76.6817°
revolutions per day: 14.97406226
mean anomaly at epoch: 283.6327°
orbit number at epoch: 46310

The dashed part of the orbit path shows where the satellite is in the earth's shadow,  

DLR